Regional Weather Roundup
Issued by NWS Grand Forks, ND

Home | Current Version | Previous Version | Graphics & Text | Print | Product List | Glossary On
Versions: 1 2 3 4 5 6 7 8 9 10 11 12 13 14 15 16 17 18 19 20 21 22 23 24 25 26 27 28 29 30 31 32 33 34 35 36 37 38 39 40 41 42 43 44 45 46 47 48 49 50
463
ASUS43 KFGF 251531
RWRFGF
PRAIRIE TO PINES  WEATHER ROUNDUP
NATIONAL WEATHER SERVICE EASTERN NORTH DAKOTA/GRAND FORKS ND
1000 AM CDT FRI MAY 25 2018

 **SATELLITE DATA USED TO AUGMENT SKY COVER AT AUTOMATED STATIONS**
 *****  WEATHER ACROSS EASTERN NORTH DAKOTA  *****

CITY           SKY/WX    TMP DP  RH WIND       PRES   REMARKS
GRAND FORKS    FAIR      79  61  53 W7        29.66S
GRAND FRKS AFB FAIR      80  60  50 W7        29.67S
GRAND FRKS NWS   N/A     81  61  51 W3        29.64S
DEVILS LAKE    FAIR      72  58  61 SW10      29.70F
FARGO          FAIR      80  59  48 SW7       29.71S
WAHPETON ARPT  FAIR      81  52  36 W6        29.74S
$$

 ***** WEATHER ACROSS CENTRAL AND WESTERN NORTH DAKOTA  *****

CITY           SKY/WX    TMP DP  RH WIND       PRES   REMARKS
BISMARCK       FAIR      77  57  50 W8        29.76F
MINOT          FAIR      80  53  39 SW15      29.67F
JAMESTOWN      FAIR      79  59  50 W16       29.73S
MINOT AFB      FAIR      78  54  42 W18       29.65F
GARRISON         N/A     76  53  44 W14G23    29.72F
WILLISTON      FAIR      73  53  49 W9        29.76R
DICKINSON      FAIR      75  52  44 W15       29.81S
HETTINGER      FAIR      74  55  51 W16       29.87S
$$

 *****  OTHER AIRPORT OBSERVATIONS IN OUR AREA  *****

CITY           SKY/WX    TMP DP  RH WIND       PRES   REMARKS
WALHALLA       FAIR      77  61  57 NW8       29.64F
GRAFTON AIRPOR FAIR      79  61  53 W7        29.67S
VALLEY CITY AR FAIR      81  59  47 NW15      29.74F
CANDO          FAIR      75  59  57 SW8       29.70F
CAVALIER APRT    N/A     77  59  53 W7        29.64S
GWINNER          N/A     82  59  44 W10       29.74F
SHEYENNE NWR     N/A     83  58  42 NW10      29.95S
ROLLA          FAIR      73  57  56 SW13      29.68S
 ***** THE ABOVE OBSERVATIONS ARE NON NWS ARE NOT QUALITY
       CONTROLLED AND MAY MIS-REPORT RAIN FOR SNOW...
$$

  *****  WEATHER ACROSS NORTHERN MINNESOTA  *****

CITY           SKY/WX    TMP DP  RH WIND       PRES   REMARKS
FLAG ISLAND    FAIR      63  57  82 S8        29.63S
WARROAD        FAIR      73  63  68 SW13      29.66S
ROSEAU         FAIR      75  63  64 W10       29.65F
HALLOCK        FAIR      77  61  57 W5        29.64S
THF RVR FALLS  FAIR      72  61  68 S8        29.69F
BAUDETTE       FAIR      76  60  57 SW9       29.65F
WASKISH          N/A     73  61  64 SW5       29.69F
CROOKSTON      FAIR      79  59  50 SW5       29.68F
STEPHEN NDAWN    N/A     75  57  53 W5          N/A
GREENBUSH NDAW   N/A    N/A N/A N/A W9          N/A
$$
  *****  WEATHER ACROSS CENTRAL AND WEST MINNESOTA  *****

CITY           SKY/WX    TMP DP  RH WIND       PRES   REMARKS
FOSSTON        FAIR      77  55  47 SW12      29.71F
BEMIDJI        FAIR      78  58  49 W9        29.72S
PARK RAPIDS    FAIR      79  60  52 SW8       29.74S
ELBOW LAKE     FAIR      81  58  46 W8        29.76F
WADENA         FAIR      75  63  64 SW7       29.75S
DETROIT LAKES  FAIR      79  55  44 SW6       29.75F
MOORHEAD       FAIR      81  55  41 SW8       29.71F
FERGUS FALLS   FAIR      79  61  53 SW6       29.70F
MORRIS MN      FAIR      84  59  42 W3        29.75F
STAPLES        FAIR      79  57  47 W5        29.74F
$$
  *****  WEATHER ELSEWHERE ACROSS MINNESOTA  *****

CITY           SKY/WX    TMP DP  RH WIND       PRES   REMARKS
DULUTH         FAIR      74  62  66 SW14      29.74F
INTRNTL FALLS  FAIR      76  61  59 SW9       29.67S
ELY            FAIR      73  61  64 SW8       29.70F
CLOQUET        FAIR      75  61  60 SW9       29.74F
WHEATON        FAIR      82  57  42 SW7       29.76S
BRAINERD       FAIR      75  61  61 W8        29.75F
HIBBING        FAIR      74  62  66 W8        29.72F
ALEXANDRIA     FAIR      79  62  56 W8        29.78F
SAINT CLOUD    FAIR      75  64  68 S8        29.76F
MINNEAPOLIS    PTSUNNY   76  67  73 S13       29.78F
$$

  *****  WEATHER ACROSS SOUTH DAKOTA  *****

CITY           SKY/WX    TMP DP  RH WIND       PRES   REMARKS
SIOUX FALLS    FAIR      80  67  64 CALM      29.82F
BROOKINGS      FAIR      79  66  64 SW5       29.82F
WATERTOWN      FAIR      78  61  55 W8        29.80F
HURON          FAIR      82  65  56 NW7       29.80S
SISSETON         N/A     82  60  47 W10       29.74F
ABERDEEN       FAIR      84  59  42 W10       29.77F
MITCHELL       FAIR      81  64  56 W3        29.81F
PIERRE         FAIR      79  61  53 W5        29.81S
MOBRIDGE       FAIR      77  60  55 W7        29.79S
RAPID CITY     FAIR      75  58  55 N9        29.93S
$$

  *****  SOME WEATHER IN NEARBY STATES *****

CITY           SKY/WX    TMP DP  RH WIND       PRES   REMARKS
GLASGOW MT     FAIR      72  52  49 NW13      29.81R
GREAT FALLS MT FAIR      68  50  52 SW12      29.95F
CHEYENNE WY    FAIR      70  47  43 W5        30.15S
SCOTTSBLUFF NE FAIR      69  54  58 NW12      30.02S
OMAHA NE       PTSUNNY   77  64  64 S7        29.86F
DES MOINES IA  PTSUNNY   75  66  73 S10       29.87S
DAVENPORT IA   FAIR      82  65  56 S8        29.92F
CHICAGO IL     FAIR      81  58  45 SW12      29.92F
EAU CLAIRE WI  FAIR      67  61  81 S15G26    29.81S
LA CROSSE WI   FAIR      78  64  61 E8        29.87F
$$

  *****  SOME NATIONAL WEATHER *****

CITY           SKY/WX    TMP DP  RH WIND       PRES   REMARKS
LA GUARDIA NY  FAIR      82  49  31 W9G17     29.98F
RALEIGH NC     PTSUNNY   76  63  64 S8        30.14F
ATLANTA GA     CLOUDY    76  68  76 E10       30.09S
NEW ORLEANS LA PTSUNNY   83  69  62 NW5       30.01F
OKLAHOMA CITY  PTSUNNY   65  62  90 SE5       30.00S
ALBUQUERQUE NM FAIR      71  28  20 VRB3      30.21R
SALT LAKE CITY SUNNY     72  43  35 SE8       29.98S
LOS ANGELES CA PTSUNNY   61  52  72 W12       30.12R
BOISE ID       FAIR      66  51  58 SW5       29.92F
SEATTLE WA     CLOUDY    55  45  68 NW5       30.05S
$$

*** WEATHER ACROSS MANITOBA...SASKATCHEWAN AND ONTARIO ***
                ***ONTARIO***

CITY           SKY/WX    TMP DP  RH WIND       PRES   REMARKS
GERALDTON      PTSUNNY   75  63  64 SW7       29.69F
THUNDER BAY    PTSUNNY   66  63  88 NE6       29.67
SIOUX LOOKOUT  MOSUNNY   75  63  64 SW10      29.61F
TORONTO        MOSUNNY   79  54  41 W17       29.92F
BIG TROUT LK   SUNNY     57  41  54 E15G23    29.74F
PICKLE LAKE    CLOUDY    70  63  78 S9        29.64R THUNDER
DRYDEN         SUNNY     77  59  53 SW10      29.61F
KENORA         MOSUNNY   72  59  64 NW10G17   29.64S
$$
                *** MANITOBA***

CITY           SKY/WX    TMP DP  RH WIND       PRES   REMARKS
BRANDON        MOSUNNY   64  61  88 SW5       29.63F
DAUPHIN        PTSUNNY   70  59  68 VRB2      29.59S
ISLAND LAKE    SHOWER    50  48  93 NE12G22   29.70R
PILOT MOUND      N/A     72  59  64 SW5         N/A
THE PAS        LGT RAIN  55  54  94 E10G18    29.60S
THOMPSON       PTSUNNY   43  34  70 NE13G25   29.81R
WINNIPEG       PTSUNNY   70  61  73 NW8       29.62S
LYNN LAKE      PTSUNNY   45  36  70 E17       29.80F
CHURCHILL      LGT SNOW  30  28  93 E15       30.10S WCI  19
GILLAM         CLOUDY    32  28  86 NE14G22   29.93F WCI  22
$$
                ***SASKATCHEWAN***

CITY           SKY/WX    TMP DP  RH WIND       PRES   REMARKS
ESTEVAN        SUNNY     73  54  49 W14G20    29.68S
KINDERSLEY     MOSUNNY   64  54  68 NW17G23   29.75R
LLOYDMINSTER   PTSUNNY   63  55  77 NW12G18   29.70S
PRINCE ALBERT  CLOUDY    61  59  94 VRB2      29.58S FOG
REGINA         MOSUNNY   66  55  68 W17       29.70R
YORKTON        SUNNY     68  61  77 VRB2      29.61S
N. BATTLEFORD  PTSUNNY   63  57  82 NW14G20   29.67S
LA RONGE       SHOWER    61  59  94 NE8       29.61R FOG
SASKATOON      PTSUNNY   63  57  82 W21       29.64S
SWIFT CURRENT  SUNNY     64  50  59 W18G24    29.77S
$$
NOTE: THESE ARE AUTOMATED STATIONS WITH LIMITED QUALITY CONTROL
      "FAIR" INDICATES FEW OR NO CLOUDS BELOW 12,000 FEET WITH NO
      SIGNIFICANT WEATHER AND/OR OBSTRUCTIONS TO VISIBILITY.
      SKY/WX - SKY CONDITION AND SIGNIFICANT WEATHER.
      TMP - AIR TEMPERATURE.    DP   - DEWPOINT TEMPERATURE.
      RH  - RELATIVE HUMIDITY.  PRES - PRESSURE.
      HX  - HEAT INDEX.         WCI  - WIND CHILL INDEX.
$




USA.gov is the U.S. government's official web portal to all federal, state and local government web resources and services.